[[{"header":{"parameterUnit":"m.s-1","parameterCategory":2,"la1":30.2991,"la2":30.254,"lo1":-89.0895,"lo2":-89.0444,"dx":0.0017,"dy":0.0017,"nx":28,"ny":28,"refTime":"2023-01-20T09:00:00:Z","depth":"0","parameterNumber":2,"parameterNumberName":"U-component_of_CURRENTS"},"data":[0,0,0,0,0,0,0,0,0,0,0,0,0,0,0,0,0,0,0,0,0,0,0,0,0,0,0,0,0,0,0,0,0,0,0,0,0,0,0,0,0,0,0,0,0,0,0,0,0,0,0,0,0,0,0,0,0,0,-0.3359,-0.336,0,-0.3408,-0.3408,-0.3408,-0.3374,-0.3373,-0.3372,-0.3371,-0.3344,-0.3344,-0.3345,0,0,0,0,0,0,0,0,0,0,0,0,0,-0.3228,-0.323,-0.3359,-0.336,-0.3361,-0.3408,-0.3408,-0.3408,-0.3375,-0.3373,-0.3372,-0.337,-0.3344,-0.3344,-0.3345,0,0,0,0,0,0,0,0,0,0,0,0,0,-0.3278,-0.3231,-0.3359,-0.3352,-0.3352,-0.3408,-0.3408,-0.3409,-0.3375,-0.3373,-0.3371,-0.337,-0.3344,-0.3344,-0.3345,-0.3385,0,0,-0.3347,-0.3347,0,0,0,0,0,0,0,0,-0.3276,-0.3283,-0.3352,-0.3353,-0.3353,-0.3386,-0.3352,-0.3398,-0.3375,-0.3363,-0.3371,-0.3369,-0.3355,-0.3354,-0.3363,-0.3383,-0.3382,-0.3347,-0.3347,-0.3347,-0.3347,0,0,0,0,0,0,0,-0.3272,-0.328,-0.3375,-0.3353,-0.3354,-0.3344,-0.3349,-0.3361,-0.3364,-0.3364,-0.3362,-0.3374,-0.3353,-0.3363,-0.3362,-0.3382,-0.3347,-0.3347,-0.3348,-0.3348,-0.3404,-0.3405,0,0,0,0,0,0,-0.3276,-0.3278,-0.3373,-0.3377,-0.3313,-0.3348,-0.3353,-0.3375,-0.3366,-0.3364,-0.3375,-0.3372,-0.3363,-0.3362,-0.3361,-0.3391,-0.3347,-0.3348,-0.3348,-0.3403,-0.3404,-0.3405,0,0,0,0,0,0,-0.3273,-0.3285,-0.3371,-0.333,-0.3341,-0.3353,-0.3377,-0.3377,-0.338,-0.3376,-0.3372,-0.3378,-0.3361,-0.336,-0.337,-0.339,-0.3348,-0.3349,-0.3401,-0.3403,-0.3405,-0.3461,0,0,0,0,0,0,-0.327,-0.3284,-0.3295,-0.3331,-0.3343,-0.3406,-0.3379,-0.3379,-0.3392,-0.3388,-0.3377,-0.3373,-0.336,-0.337,-0.3371,-0.339,-0.3349,-0.34,-0.3402,-0.3404,-0.3458,-0.3464,-0.347,0,0,0,0,0,-0.3265,-0.3291,-0.3296,-0.3307,-0.3361,-0.3407,-0.3412,-0.3411,-0.3394,-0.3405,-0.3394,-0.3373,-0.3383,-0.3371,-0.3373,-0.3392,-0.3399,-0.3401,-0.3404,-0.3455,-0.3463,-0.347,0,0,0,0,0,0,-0.3237,-0.3291,-0.3297,-0.3337,-0.337,-0.3402,-0.3413,-0.3417,-0.342,-0.3409,-0.3393,-0.339,-0.3405,-0.3395,-0.3382,-0.3414,-0.3386,-0.3389,-0.3425,-0.3432,-0.3438,-0.3441,-0.335,0,0,0,0,0,-0.324,-0.3269,-0.332,-0.3347,-0.3367,-0.3391,-0.3406,-0.3414,-0.3427,-0.3425,-0.342,-0.3414,-0.3421,-0.3421,-0.3425,-0.3448,-0.3437,-0.346,-0.3466,-0.3472,-0.3475,-0.3474,-0.348,-0.3413,-0.3413,-0.3413,0,0,-0.3232,-0.3268,-0.3282,-0.3343,-0.3364,-0.3407,-0.3394,-0.3426,-0.3455,-0.3424,-0.3445,-0.3437,-0.3433,-0.3455,-0.3461,-0.3445,-0.3488,-0.3475,-0.3479,-0.348,-0.3477,-0.3484,-0.349,-0.3415,-0.3415,-0.3415,0,0,-0.324,-0.327,-0.3299,-0.3337,-0.3386,-0.3412,-0.3424,-0.3463,-0.3469,-0.3501,-0.3482,-0.3487,-0.3499,-0.3501,-0.3503,-0.3548,-0.3522,-0.3547,-0.3581,-0.358,-0.3585,-0.359,-0.3595,-0.3599,-0.3549,-0.3549,-0.3549,0,-0.3225,-0.3279,-0.3313,-0.3359,-0.3391,-0.3417,-0.346,-0.3486,-0.3519,-0.3531,-0.351,-0.3533,-0.3523,-0.3555,-0.3565,-0.3563,-0.3556,-0.3552,-0.3588,-0.3592,-0.3595,-0.3599,-0.3604,-0.3552,-0.3551,-0.3551,-0.3551,0,-0.3262,-0.3307,-0.3329,-0.3397,-0.3438,-0.3477,-0.353,-0.3558,-0.3566,-0.3586,-0.3613,-0.3605,-0.3612,-0.3616,-0.3603,-0.3632,-0.3618,-0.3596,-0.3568,-0.3606,-0.3608,-0.3611,-0.3556,-0.3555,-0.3554,-0.3553,0,0,-0.3212,-0.333,-0.3334,-0.3376,-0.3461,-0.3497,-0.3558,-0.3617,-0.3652,-0.3667,-0.3704,-0.371,-0.3693,-0.3695,-0.3681,-0.3682,-0.3703,-0.3651,-0.3649,-0.3654,-0.3706,-0.3675,-0.3675,-0.3683,-0.3684,-0.3684,-0.3701,0,-0.3222,-0.3311,-0.3371,-0.3446,-0.3497,-0.3555,-0.3613,-0.3668,-0.3703,-0.3746,-0.3745,-0.3766,-0.3729,-0.3729,-0.3727,-0.3713,-0.3712,-0.3701,-0.367,-0.3669,-0.3635,-0.3678,-0.3608,-0.3614,-0.3704,-0.3704,-0.3705,0,-0.3228,-0.3294,-0.3372,-0.3485,-0.3511,-0.3555,-0.3645,-0.3703,-0.3777,-0.3802,-0.3824,-0.3826,-0.384,-0.3795,-0.3785,-0.3778,-0.3744,-0.3727,-0.3727,-0.3679,-0.3644,-0.3589,-0.3617,-0.3586,-0.3709,-0.3709,-0.3709,0,-0.3167,-0.3287,-0.3346,-0.3384,-0.3517,-0.355,-0.361,-0.3701,-0.3751,-0.3827,-0.3861,-0.3882,-0.3886,-0.3858,-0.3815,-0.38,-0.3802,-0.3775,-0.3719,-0.3717,-0.3641,-0.3631,-0.3631,-0.3761,-0.3761,-0.3761,-0.3761,0,-0.3153,-0.3194,-0.3318,-0.335,-0.3408,-0.3517,-0.3579,-0.3646,-0.375,-0.381,-0.3866,-0.3901,-0.3898,-0.3898,-0.3848,-0.3799,-0.3822,-0.3737,-0.3722,-0.3661,-0.3652,-0.3607,-0.3613,-0.3762,-0.3762,-0.3761,-0.3761,0,-0.3064,-0.3156,-0.3218,-0.3345,-0.3378,-0.3408,-0.3535,-0.3598,-0.3704,-0.3786,-0.3808,-0.3911,-0.3921,-0.3915,-0.3885,-0.3838,-0.3743,-0.3764,-0.37,-0.3676,-0.3593,-0.3605,-0.3561,-0.3457,-0.3718,-0.3718,-0.3717,0,-0.3025,-0.305,-0.3164,-0.3201,-0.3248,-0.3322,-0.3387,-0.3529,-0.3607,-0.3776,-0.3811,-0.3879,-0.3918,-0.3898,-0.3829,-0.377,-0.3709,-0.3665,-0.3621,-0.3591,-0.3594,-0.3564,-0.3476,-0.3549,-0.3548,-0.3546,-0.3545,0,-0.293,-0.2961,-0.3018,-0.3079,-0.3142,-0.321,-0.3314,-0.3369,-0.3553,-0.3649,-0.3772,-0.3826,-0.3869,-0.3815,-0.3759,-0.3687,-0.3595,-0.3632,-0.3612,-0.3478,-0.3434,-0.3325,-0.3547,-0.3531,-0.3533,-0.3534,-0.3534,-0.3535,-0.2828,-0.2829,-0.2895,-0.2935,-0.3009,-0.3055,-0.3061,-0.3222,-0.3312,-0.3448,-0.3624,-0.3719,-0.378,-0.3705,-0.3637,-0.3515,-0.3489,-0.3423,-0.3447,-0.3424,-0.3302,-0.3503,-0.3461,-0.3462,-0.3463,-0.3463,-0.3464,0,-0.2689,-0.2713,-0.2754,-0.2797,-0.2804,-0.2884,-0.2982,-0.2979,-0.3042,-0.3268,-0.3387,-0.3582,-0.3559,-0.359,-0.3529,-0.3389,-0.3258,-0.3282,-0.3223,-0.3142,-0.3331,-0.33,-0.3207,-0.3207,-0.3207,-0.3207,-0.3207,-0.3207,-0.2623,-0.2598,-0.2613,-0.2558,-0.2591,-0.253,-0.2536,-0.2577,-0.2693,-0.2862,-0.3076,-0.3333,-0.3383,-0.3669,-0.3524,-0.3351,-0.3202,-0.3114,-0.3065,-0.3229,-0.3244,-0.3258,-0.3228,-0.3121,-0.3121,-0.2782,-0.278,-0.2779]},{"header":{"parameterUnit":"m.s-1","parameterCategory":2,"la1":30.2991,"la2":30.254,"lo1":-89.0895,"lo2":-89.0444,"dx":0.0017,"dy":0.0017,"nx":28,"ny":28,"refTime":"2023-01-20T09:00:00:Z","depth":"0","parameterNumber":3,"parameterNumberName":"V-component_of_CURRENTS"},"data":[0,0,0,0,0,0,0,0,0,0,0,0,0,0,0,0,0,0,0,0,0,0,0,0,0,0,0,0,0,0,0,0,0,0,0,0,0,0,0,0,0,0,0,0,0,0,0,0,0,0,0,0,0,0,0,0,0,0,-0.0298,-0.0297,0,-0.0167,-0.0165,-0.0164,-0.0072,-0.0072,-0.0071,-0.0071,0.0101,0.0105,0.0109,0,0,0,0,0,0,0,0,0,0,0,0,0,-0.0386,-0.0385,-0.0298,-0.0297,-0.0296,-0.0167,-0.0165,-0.0163,-0.0072,-0.0072,-0.0071,-0.007,0.01,0.0105,0.0109,0,0,0,0,0,0,0,0,0,0,0,0,0,-0.0309,-0.0385,-0.0299,-0.0237,-0.023,-0.0168,-0.0165,-0.0163,-0.0072,-0.0072,-0.0071,-0.007,0.0098,0.0104,0.011,0.0135,0,0,0.0129,0.0132,0,0,0,0,0,0,0,0,-0.0313,-0.0305,-0.0247,-0.0241,-0.0233,-0.0137,-0.0133,-0.0062,-0.0072,-0.0129,-0.0071,-0.007,0.0023,0.0035,0.0062,0.0143,0.015,0.013,0.0133,0.0136,0.0138,0,0,0,0,0,0,0,-0.0319,-0.031,-0.0244,-0.0246,-0.0237,-0.0187,-0.0175,-0.0119,-0.0056,-0.0124,-0.0118,-0.0108,0.0027,0.0055,0.0066,0.0153,0.013,0.0135,0.0139,0.0141,0.0286,0.0286,0,0,0,0,0,0,-0.0345,-0.0316,-0.0248,-0.024,-0.0275,-0.0186,-0.0173,-0.0167,-0.0057,-0.0041,-0.0108,-0.0104,0.0044,0.0059,0.0073,0.0117,0.0136,0.0142,0.0145,0.0285,0.0286,0.0286,0,0,0,0,0,0,-0.0348,-0.0341,-0.0253,-0.0276,-0.0262,-0.0186,-0.0179,-0.0165,-0.0136,-0.0046,-0.0028,-0.0096,0.0045,0.0064,0.0124,0.0124,0.0145,0.015,0.0285,0.0286,0.0286,0.0199,0,0,0,0,0,0,-0.0351,-0.0343,-0.0349,-0.0279,-0.0262,-0.0226,-0.0179,-0.0163,-0.0132,-0.0125,-0.0029,-0.0013,0.0047,0.0114,0.013,0.0133,0.0155,0.0285,0.0285,0.0286,0.0202,0.0197,0.0192,0,0,0,0,0,-0.0355,-0.037,-0.0351,-0.0342,-0.0273,-0.0227,-0.0214,-0.0155,-0.0133,-0.0126,-0.0058,-0.0016,0.0126,0.0119,0.0137,0.0142,0.0285,0.0285,0.0286,0.0204,0.0198,0.0192,0,0,0,0,0,0,-0.0411,-0.036,-0.0337,-0.0336,-0.0291,-0.0213,-0.0205,-0.0165,-0.0105,-0.0099,-0.0012,0.0009,0.006,0.0112,0.0101,0.0185,0.0212,0.0216,0.0144,0.0138,0.0133,0.0117,0.016,0,0,0,0,0,-0.0429,-0.0427,-0.0366,-0.0366,-0.0349,-0.0279,-0.0255,-0.0216,-0.0154,-0.0127,-0.0059,0.0013,0.0076,0.0114,0.0173,0.022,0.0277,0.0235,0.023,0.0225,0.0225,0.0309,0.0311,0.0287,0.0287,0.0287,0,0,-0.0451,-0.0424,-0.0422,-0.0379,-0.0339,-0.0321,-0.0262,-0.0234,-0.0211,-0.0119,-0.0071,-0.0006,0.0082,0.0134,0.0162,0.018,0.0262,0.0225,0.0221,0.0223,0.031,0.0312,0.0314,0.0287,0.0287,0.0287,0,0,-0.0498,-0.0471,-0.0486,-0.0454,-0.0408,-0.036,-0.0359,-0.0286,-0.0246,-0.0195,-0.0122,-0.0056,0.0035,0.0105,0.0151,0.0154,0.0226,0.0169,0.0138,0.0219,0.0222,0.0225,0.0294,0.0304,0.0172,0.0172,0.0172,0,-0.0529,-0.0536,-0.0483,-0.0485,-0.0467,-0.0386,-0.0391,-0.0337,-0.0252,-0.0217,-0.0195,-0.0044,0.0024,0.0108,0.0108,0.0143,0.0195,0.0151,0.0212,0.0216,0.0221,0.0291,0.0303,0.0168,0.0169,0.0169,0.0169,0,-0.0582,-0.0585,-0.0592,-0.0567,-0.0538,-0.0531,-0.0454,-0.0415,-0.0361,-0.0296,-0.0211,-0.0108,-0.0016,0.0015,0.0063,0.0133,0.016,0.0188,0.0222,0.0218,0.0292,0.0306,0.0162,0.0164,0.0165,0.0166,0,0,-0.0656,-0.0637,-0.0638,-0.0645,-0.0583,-0.0568,-0.0525,-0.046,-0.043,-0.0334,-0.028,-0.0165,-0.0101,-0.0045,0.0034,0.0108,0.0182,0.0153,0.0159,0.0212,0.0355,0.0418,0.044,0.0219,0.0221,0.0223,0.039,0,-0.0715,-0.0758,-0.0714,-0.0736,-0.075,-0.0661,-0.0628,-0.0553,-0.0472,-0.0397,-0.0268,-0.0192,-0.0124,-0.0083,0.0004,0.0142,0.0216,0.0133,0.036,0.0367,0.0416,0.0458,0.0525,0.0684,0.0405,0.0407,0.0409,0,-0.0779,-0.0802,-0.0847,-0.083,-0.0824,-0.0814,-0.0746,-0.0704,-0.0568,-0.0502,-0.0387,-0.028,-0.0141,-0.0098,0.0141,0.0085,0.0205,0.0309,0.0319,0.0419,0.0457,0.0648,0.0721,0.0957,0.0431,0.0429,0.0428,0,-0.0874,-0.0887,-0.0932,-0.0928,-0.0893,-0.0885,-0.0854,-0.0743,-0.0706,-0.0566,-0.0518,-0.0331,-0.0233,-0.0055,0.0173,0.0156,0.0432,0.044,0.0612,0.0617,0.0742,0.0755,0.1066,0.0594,0.0594,0.0593,0.0593,0,-0.0958,-0.099,-0.0987,-0.1015,-0.1054,-0.0986,-0.0986,-0.0918,-0.0816,-0.0766,-0.0587,-0.0503,-0.0219,-0.002,0.0166,0.0449,0.0436,0.0622,0.0675,0.0713,0.0721,0.0985,0.1071,0.0599,0.0598,0.0597,0.0596,0,-0.105,-0.1048,-0.1104,-0.1103,-0.1106,-0.1134,-0.1099,-0.1091,-0.0976,-0.0903,-0.0862,-0.0615,-0.0336,-0.0044,0.0276,0.0448,0.0854,0.0792,0.0814,0.0867,0.1229,0.1305,0.165,0.1765,0.1009,0.1012,0.1014,0,-0.1101,-0.1141,-0.119,-0.1238,-0.1245,-0.1271,-0.1284,-0.119,-0.1166,-0.097,-0.0941,-0.0653,-0.0425,0.0084,0.0459,0.0838,0.0995,0.109,0.1073,0.1285,0.1409,0.1453,0.1526,0.1204,0.1208,0.1211,0.1213,0,-0.1196,-0.121,-0.1265,-0.137,-0.1415,-0.1455,-0.1459,-0.1464,-0.1324,-0.1231,-0.1049,-0.0848,-0.0295,0.0207,0.0724,0.0933,0.1277,0.1161,0.1398,0.1609,0.1665,0.1788,0.1042,0.124,0.1237,0.1236,0.1234,0.1233,-0.1257,-0.1328,-0.1405,-0.1496,-0.1561,-0.1623,-0.1659,-0.1624,-0.1575,-0.1398,-0.1159,-0.0806,-0.001,0.0748,0.1019,0.1614,0.1516,0.176,0.1839,0.1868,0.1979,0.1281,0.1521,0.152,0.1519,0.1519,0.1518,0,-0.1337,-0.1416,-0.1524,-0.1635,-0.1731,-0.1723,-0.1759,-0.1763,-0.1715,-0.1463,-0.1225,-0.036,0.0416,0.1127,0.2006,0.2294,0.2334,0.2413,0.2513,0.2556,0.1978,0.1986,0.2319,0.2319,0.2318,0.2318,0.2318,0.2318,-0.1384,-0.1511,-0.1572,-0.1752,-0.1828,-0.1924,-0.1949,-0.1918,-0.1765,-0.137,-0.0894,-0.0467,0.0617,0.2136,0.2936,0.2963,0.3188,0.3149,0.3255,0.288,0.2825,0.2772,0.2805,0.3304,0.3305,0.3813,0.3818,0.3822]}],[{"header":{"parameterUnit":"m.s-1","parameterCategory":2,"la1":30.2991,"la2":30.254,"lo1":-89.0895,"lo2":-89.0444,"dx":0.0017,"dy":0.0017,"nx":28,"ny":28,"refTime":"2023-01-20T09:00:00:Z","depth":"2","parameterNumber":2,"parameterNumberName":"U-component_of_CURRENTS"},"data":[0,0,0,0,0,0,0,0,0,0,0,0,0,0,0,0,0,0,0,0,0,0,0,0,0,0,0,0,0,0,0,0,0,0,0,0,0,0,0,0,0,0,0,0,0,0,0,0,0,0,0,0,0,0,0,0,0,0,-0.323,-0.3231,0,-0.3278,-0.3278,-0.3278,-0.3248,-0.3247,-0.3246,-0.3245,-0.3222,-0.3222,-0.3222,0,0,0,0,0,0,0,0,0,0,0,0,0,-0.3105,-0.3107,-0.323,-0.3231,-0.3232,-0.3278,-0.3278,-0.3278,-0.3248,-0.3247,-0.3246,-0.3245,-0.3221,-0.3222,-0.3222,0,0,0,0,0,0,0,0,0,0,0,0,0,-0.3153,-0.3108,-0.323,-0.3225,-0.3226,-0.3278,-0.3278,-0.3279,-0.3249,-0.3247,-0.3245,-0.3244,-0.3221,-0.3222,-0.3222,-0.3259,0,0,-0.3224,-0.3224,0,0,0,0,0,0,0,0,-0.315,-0.3157,-0.3225,-0.3226,-0.3226,-0.3259,-0.3225,-0.327,-0.3249,-0.3236,-0.3245,-0.3243,-0.3231,-0.3231,-0.3239,-0.3258,-0.3257,-0.3224,-0.3225,-0.3225,-0.3225,0,0,0,0,0,0,0,-0.3147,-0.3155,-0.3246,-0.3226,-0.3227,-0.3218,-0.3223,-0.3234,-0.3238,-0.3237,-0.3236,-0.3247,-0.323,-0.3239,-0.3238,-0.3256,-0.3224,-0.3225,-0.3225,-0.3225,-0.3281,-0.3282,0,0,0,0,0,0,-0.3151,-0.3153,-0.3244,-0.3247,-0.3187,-0.3222,-0.3227,-0.3247,-0.3239,-0.3238,-0.3249,-0.3246,-0.3239,-0.3238,-0.3237,-0.3269,-0.3225,-0.3225,-0.3226,-0.328,-0.3281,-0.3282,0,0,0,0,0,0,-0.3149,-0.3159,-0.3242,-0.3203,-0.3213,-0.3226,-0.3249,-0.3249,-0.3254,-0.325,-0.3246,-0.3253,-0.3237,-0.3236,-0.3247,-0.3268,-0.3226,-0.3226,-0.3278,-0.328,-0.3282,-0.334,0,0,0,0,0,0,-0.3145,-0.3158,-0.317,-0.3204,-0.3216,-0.3276,-0.3251,-0.3251,-0.3266,-0.3262,-0.3253,-0.3249,-0.3236,-0.3247,-0.3248,-0.3268,-0.3227,-0.3277,-0.3279,-0.3281,-0.3336,-0.3343,-0.3349,0,0,0,0,0,-0.314,-0.3166,-0.3171,-0.3181,-0.3233,-0.3278,-0.3283,-0.3283,-0.3267,-0.3279,-0.327,-0.3249,-0.3261,-0.3249,-0.325,-0.327,-0.3276,-0.3279,-0.3281,-0.3334,-0.3342,-0.3349,0,0,0,0,0,0,-0.3115,-0.3167,-0.3172,-0.3211,-0.3243,-0.3273,-0.3285,-0.3289,-0.3294,-0.3285,-0.3269,-0.3266,-0.3283,-0.3272,-0.3259,-0.3292,-0.3264,-0.3267,-0.3303,-0.3311,-0.3317,-0.3321,-0.3227,0,0,0,0,0,-0.3119,-0.3147,-0.3195,-0.3222,-0.3241,-0.3264,-0.328,-0.3288,-0.3301,-0.3301,-0.3296,-0.3291,-0.3298,-0.3299,-0.3302,-0.3326,-0.3314,-0.3338,-0.3345,-0.335,-0.3354,-0.3353,-0.3359,-0.3291,-0.3291,-0.329,0,0,-0.3112,-0.3146,-0.3159,-0.3218,-0.3238,-0.328,-0.3268,-0.3301,-0.3329,-0.3299,-0.3322,-0.3315,-0.331,-0.3332,-0.3339,-0.3323,-0.3367,-0.3353,-0.3358,-0.3359,-0.3356,-0.3362,-0.3368,-0.3292,-0.3292,-0.3292,0,0,-0.3121,-0.315,-0.3179,-0.3215,-0.3263,-0.3288,-0.33,-0.3339,-0.3346,-0.3378,-0.336,-0.3366,-0.3378,-0.3379,-0.3381,-0.3427,-0.3401,-0.3426,-0.3461,-0.346,-0.3466,-0.347,-0.3476,-0.3481,-0.3428,-0.3428,-0.3428,0,-0.3108,-0.3159,-0.3192,-0.3237,-0.3268,-0.3294,-0.3336,-0.3362,-0.3395,-0.3407,-0.3389,-0.3412,-0.3403,-0.3434,-0.3445,-0.3442,-0.3436,-0.3433,-0.3468,-0.3472,-0.3476,-0.348,-0.3485,-0.3431,-0.3431,-0.3431,-0.343,0,-0.3144,-0.3188,-0.3209,-0.3275,-0.3315,-0.3354,-0.3405,-0.3434,-0.3444,-0.3464,-0.3492,-0.3485,-0.3492,-0.3496,-0.3484,-0.3513,-0.3499,-0.3477,-0.3448,-0.3486,-0.3489,-0.3492,-0.3436,-0.3435,-0.3434,-0.3433,0,0,-0.3098,-0.3211,-0.3215,-0.3256,-0.3339,-0.3374,-0.3434,-0.3492,-0.3527,-0.3544,-0.3581,-0.3588,-0.3574,-0.3575,-0.3562,-0.3563,-0.3586,-0.3533,-0.3531,-0.3537,-0.359,-0.3556,-0.3556,-0.3566,-0.3567,-0.3567,-0.3585,0,-0.3109,-0.3195,-0.3252,-0.3326,-0.3375,-0.3431,-0.3488,-0.3543,-0.3578,-0.3621,-0.3621,-0.3644,-0.3609,-0.361,-0.3609,-0.3595,-0.3596,-0.3584,-0.3552,-0.3552,-0.3515,-0.3559,-0.3256,-0.3244,-0.3588,-0.3589,-0.3589,0,-0.3115,-0.3179,-0.3255,-0.3364,-0.3389,-0.3433,-0.3521,-0.3578,-0.3652,-0.3677,-0.3701,-0.3704,-0.372,-0.3676,-0.3668,-0.3661,-0.3629,-0.3612,-0.3611,-0.356,-0.3524,-0.3258,-0.3236,-0.3594,-0.3594,-0.3593,-0.3593,0,-0.3058,-0.3174,-0.3231,-0.3268,-0.3397,-0.343,-0.3489,-0.3578,-0.3627,-0.3703,-0.3738,-0.3759,-0.3766,-0.3739,-0.3699,-0.3684,-0.3687,-0.3659,-0.3602,-0.3599,-0.3325,-0.3298,-0.3647,-0.3647,-0.3647,-0.3647,-0.3647,0,-0.3045,-0.3086,-0.3205,-0.3237,-0.3294,-0.3399,-0.3462,-0.3527,-0.3629,-0.3687,-0.3744,-0.3779,-0.3778,-0.3779,-0.3732,-0.3682,-0.3707,-0.362,-0.3604,-0.334,-0.3315,-0.36,-0.3594,-0.3647,-0.3647,-0.3647,-0.3647,0,-0.296,-0.305,-0.3109,-0.3233,-0.3266,-0.3296,-0.342,-0.348,-0.3586,-0.3665,-0.3688,-0.3789,-0.3801,-0.3796,-0.3769,-0.372,-0.3678,-0.3647,-0.3351,-0.3301,-0.3587,-0.3584,-0.36,-0.3599,-0.3598,-0.3598,-0.3597,0,-0.2923,-0.2947,-0.3058,-0.3094,-0.3141,-0.3214,-0.3277,-0.3415,-0.349,-0.3655,-0.3689,-0.3757,-0.3788,-0.3768,-0.3658,-0.3589,-0.3658,-0.3303,-0.3225,-0.36,-0.3583,-0.3582,-0.358,-0.2881,-0.2875,-0.2869,-0.2865,0,-0.2832,-0.2863,-0.2918,-0.2977,-0.3038,-0.3103,-0.3204,-0.3256,-0.3435,-0.3522,-0.364,-0.3686,-0.3689,-0.3495,-0.3421,-0.3326,-0.3296,-0.32,-0.3636,-0.2965,-0.293,-0.2912,-0.2931,-0.2819,-0.2823,-0.2827,-0.2829,-0.2831,-0.2734,-0.2735,-0.2798,-0.2837,-0.2908,-0.295,-0.2954,-0.3085,-0.3161,-0.3222,-0.3428,-0.3391,-0.3375,-0.3111,-0.2981,-0.2855,-0.3069,-0.2918,-0.293,-0.2948,-0.2886,-0.2854,-0.2717,-0.2721,-0.2725,-0.2728,-0.273,0,-0.2589,-0.2622,-0.266,-0.27,-0.2693,-0.2784,-0.2875,-0.2817,-0.2835,-0.2928,-0.2986,-0.2725,-0.2643,-0.2629,-0.2375,-0.2367,-0.2284,-0.2272,-0.2141,-0.2189,-0.2232,-0.213,-0.1762,-0.1759,-0.1757,-0.1754,0,0,-0.2522,-0.2491,-0.2504,-0.2441,-0.2481,-0.239,-0.2393,-0.2336,-0.2331,-0.2228,-0.2218,-0.2427,-0.254,-0.2125,-0.2045,-0.1868,-0.1993,-0.1774,-0.2545,-0.2434,-0.2472,-0.2599,-0.2497,0,0,0,0,0]},{"header":{"parameterUnit":"m.s-1","parameterCategory":2,"la1":30.2991,"la2":30.254,"lo1":-89.0895,"lo2":-89.0444,"dx":0.0017,"dy":0.0017,"nx":28,"ny":28,"refTime":"2023-01-20T09:00:00:Z","depth":"2","parameterNumber":3,"parameterNumberName":"V-component_of_CURRENTS"},"data":[0,0,0,0,0,0,0,0,0,0,0,0,0,0,0,0,0,0,0,0,0,0,0,0,0,0,0,0,0,0,0,0,0,0,0,0,0,0,0,0,0,0,0,0,0,0,0,0,0,0,0,0,0,0,0,0,0,0,-0.028,-0.0279,0,-0.0151,-0.0149,-0.0148,-0.0058,-0.0058,-0.0057,-0.0057,0.0112,0.0116,0.012,0,0,0,0,0,0,0,0,0,0,0,0,0,-0.0365,-0.0365,-0.028,-0.0279,-0.0277,-0.0151,-0.0149,-0.0147,-0.0058,-0.0058,-0.0057,-0.0057,0.011,0.0115,0.012,0,0,0,0,0,0,0,0,0,0,0,0,0,-0.0289,-0.0364,-0.028,-0.022,-0.0213,-0.0152,-0.0149,-0.0147,-0.0058,-0.0058,-0.0057,-0.0056,0.0109,0.0115,0.0121,0.0145,0,0,0.0139,0.0142,0,0,0,0,0,0,0,0,-0.0294,-0.0286,-0.023,-0.0224,-0.0216,-0.0122,-0.0118,-0.0048,-0.0059,-0.0114,-0.0057,-0.0056,0.0035,0.0047,0.0073,0.0153,0.016,0.014,0.0144,0.0146,0.0148,0,0,0,0,0,0,0,-0.0299,-0.0291,-0.0226,-0.0229,-0.022,-0.017,-0.0159,-0.0104,-0.0042,-0.0109,-0.0103,-0.0093,0.0039,0.0067,0.0078,0.0163,0.014,0.0145,0.0149,0.0151,0.0293,0.0294,0,0,0,0,0,0,-0.0326,-0.0296,-0.0231,-0.0223,-0.0257,-0.017,-0.0157,-0.0151,-0.0044,-0.0028,-0.0094,-0.009,0.0056,0.007,0.0084,0.0127,0.0146,0.0152,0.0155,0.0293,0.0293,0.0294,0,0,0,0,0,0,-0.0328,-0.0321,-0.0236,-0.0258,-0.0244,-0.017,-0.0163,-0.0149,-0.0121,-0.0033,-0.0015,-0.0082,0.0057,0.0075,0.0134,0.0134,0.0155,0.016,0.0293,0.0293,0.0294,0.0209,0,0,0,0,0,0,-0.0331,-0.0323,-0.033,-0.026,-0.0244,-0.021,-0.0164,-0.0147,-0.0118,-0.0111,-0.0017,0.0,0.0059,0.0124,0.014,0.0143,0.0165,0.0293,0.0293,0.0293,0.0212,0.0206,0.0202,0,0,0,0,0,-0.0335,-0.035,-0.0331,-0.0323,-0.0255,-0.021,-0.0197,-0.014,-0.0118,-0.0111,-0.0044,-0.0003,0.0137,0.0129,0.0148,0.0152,0.0293,0.0293,0.0293,0.0214,0.0207,0.0202,0,0,0,0,0,0,-0.039,-0.034,-0.0318,-0.0318,-0.0273,-0.0196,-0.0189,-0.0149,-0.0091,-0.0085,0.0,0.0022,0.0071,0.0123,0.0112,0.0194,0.0221,0.0225,0.0154,0.0149,0.0144,0.0127,0.017,0,0,0,0,0,-0.0408,-0.0407,-0.0347,-0.0347,-0.033,-0.0262,-0.0238,-0.02,-0.0139,-0.0113,-0.0045,0.0025,0.0087,0.0124,0.0183,0.0229,0.0285,0.0244,0.0239,0.0234,0.0233,0.0316,0.0318,0.0294,0.0294,0.0294,0,0,-0.043,-0.0404,-0.0402,-0.0359,-0.032,-0.0303,-0.0245,-0.0218,-0.0195,-0.0104,-0.0057,0.0007,0.0093,0.0145,0.0172,0.0189,0.027,0.0235,0.023,0.0232,0.0316,0.0319,0.0321,0.0295,0.0295,0.0295,0,0,-0.0476,-0.0451,-0.0465,-0.0434,-0.0388,-0.0342,-0.034,-0.0268,-0.0229,-0.0179,-0.0107,-0.0043,0.0047,0.0117,0.0161,0.0165,0.0235,0.0179,0.0149,0.0228,0.0231,0.0234,0.03,0.031,0.0183,0.0183,0.0183,0,-0.0507,-0.0514,-0.0462,-0.0464,-0.0446,-0.0367,-0.0372,-0.0319,-0.0235,-0.0201,-0.0179,-0.0031,0.0036,0.0119,0.012,0.0154,0.0204,0.0162,0.0221,0.0225,0.023,0.0297,0.0309,0.0179,0.0179,0.0179,0.018,0,-0.0559,-0.0562,-0.0569,-0.0545,-0.0515,-0.051,-0.0433,-0.0395,-0.0342,-0.0279,-0.0195,-0.0094,-0.0004,0.0027,0.0075,0.0143,0.017,0.0198,0.0231,0.0227,0.0299,0.0312,0.0173,0.0174,0.0175,0.0176,0,0,-0.0633,-0.0613,-0.0615,-0.0622,-0.0561,-0.0546,-0.0504,-0.044,-0.041,-0.0317,-0.0264,-0.015,-0.0088,-0.0033,0.0046,0.0119,0.019,0.0163,0.0169,0.0219,0.0359,0.0418,0.0439,0.0227,0.0229,0.0231,0.0393,0,-0.0691,-0.0733,-0.0689,-0.0711,-0.0725,-0.0638,-0.0605,-0.0531,-0.0453,-0.0379,-0.0252,-0.0178,-0.011,-0.007,0.0016,0.0151,0.0224,0.0143,0.0364,0.0371,0.0417,0.0456,0.0364,0.0505,0.0407,0.0409,0.0411,0,-0.0754,-0.0777,-0.082,-0.0804,-0.0798,-0.0789,-0.0723,-0.0681,-0.0548,-0.0484,-0.0372,-0.0267,-0.013,-0.0086,0.0148,0.0093,0.0211,0.0314,0.0323,0.0419,0.0456,0.0498,0.0535,0.0435,0.0433,0.0431,0.0429,0,-0.0848,-0.0861,-0.0905,-0.0901,-0.0866,-0.0859,-0.0829,-0.072,-0.0685,-0.0548,-0.0502,-0.0318,-0.0223,-0.0047,0.0177,0.0161,0.0432,0.044,0.0606,0.0611,0.0599,0.06,0.0591,0.0591,0.059,0.059,0.0589,0,-0.0931,-0.0963,-0.0959,-0.0988,-0.1027,-0.0959,-0.0961,-0.0894,-0.0795,-0.0747,-0.0571,-0.0488,-0.021,-0.0014,0.0169,0.0446,0.0434,0.0616,0.0667,0.0567,0.0564,0.0553,0.0546,0.0596,0.0595,0.0594,0.0592,0,-0.1022,-0.102,-0.1075,-0.1075,-0.1077,-0.1106,-0.1073,-0.1066,-0.0953,-0.0883,-0.0844,-0.06,-0.0327,-0.0041,0.0273,0.0442,0.0688,0.0778,0.0643,0.0676,0.081,0.0797,0.0981,0.0985,0.0988,0.0991,0.0993,0,-0.1073,-0.1113,-0.1161,-0.1209,-0.1216,-0.1242,-0.1256,-0.1163,-0.1141,-0.0949,-0.0922,-0.064,-0.042,0.0078,0.0416,0.0779,0.0781,0.0901,0.0864,0.0824,0.0855,0.0837,0.082,0.0807,0.0808,0.0808,0.0808,0,-0.1167,-0.1181,-0.1235,-0.1339,-0.1385,-0.1425,-0.1429,-0.1435,-0.1298,-0.1208,-0.1031,-0.0837,-0.0326,0.0077,0.0569,0.0753,0.0841,0.0923,0.0936,0.0725,0.0674,0.07,0.0686,0.0812,0.0811,0.0811,0.0811,0.0811,-0.1229,-0.1298,-0.1375,-0.1465,-0.1529,-0.1591,-0.1627,-0.1587,-0.1539,-0.1364,-0.115,-0.0831,-0.0384,0.0289,0.0633,0.0936,0.0938,0.0996,0.0989,0.0982,0.0936,0.0894,0.1063,0.1064,0.1065,0.1066,0.1067,0,-0.1303,-0.1387,-0.1493,-0.1603,-0.1691,-0.169,-0.1726,-0.171,-0.1655,-0.1446,-0.1225,-0.0747,-0.0251,0.0208,0.0694,0.1011,0.0952,0.1045,0.0908,0.0902,0.0898,0.0842,0.0948,0.0948,0.0949,0.095,0,0,-0.135,-0.1472,-0.1532,-0.1705,-0.1786,-0.1867,-0.1891,-0.1826,-0.1693,-0.1492,-0.1249,-0.0864,-0.028,0.005,0.0452,0.071,0.0704,0.0711,0.0766,0.0546,0.0537,0.0828,0.0732,0,0,0,0,0]}],[{"header":{"parameterUnit":"m.s-1","parameterCategory":2,"la1":30.2991,"la2":30.254,"lo1":-89.0895,"lo2":-89.0444,"dx":0.0017,"dy":0.0017,"nx":28,"ny":28,"refTime":"2023-01-20T09:00:00:Z","depth":"4","parameterNumber":2,"parameterNumberName":"U-component_of_CURRENTS"},"data":[0,0,0,0,0,0,0,0,0,0,0,0,0,0,0,0,0,0,0,0,0,0,0,0,0,0,0,0,0,0,0,0,0,0,0,0,0,0,0,0,0,0,0,0,0,0,0,0,0,0,0,0,0,0,0,0,0,0,-0.2091,-0.2092,0,-0.2185,-0.2186,-0.2187,-0.2239,-0.224,-0.224,-0.224,-0.232,-0.2321,-0.2323,0,0,0,0,0,0,0,0,0,0,0,0,0,-0.1952,-0.1954,-0.2091,-0.2092,-0.2093,-0.2185,-0.2186,-0.2187,-0.2239,-0.224,-0.224,-0.2241,-0.2319,-0.2321,-0.2323,0,0,0,0,0,0,0,0,0,0,0,0,0,-0.2024,-0.1954,-0.209,-0.2132,-0.2137,-0.2185,-0.2186,-0.2188,-0.2239,-0.224,-0.224,-0.2241,-0.2318,-0.2321,-0.2324,-0.233,0,0,-0.2332,-0.2333,0,0,0,0,0,0,0,0,-0.2019,-0.2028,-0.2125,-0.2129,-0.2135,-0.2203,-0.2167,-0.2235,-0.2239,-0.2198,-0.224,-0.2241,-0.228,-0.2286,-0.23,-0.2333,-0.2337,-0.2332,-0.2334,-0.2335,-0.2336,0,0,0,0,0,0,0,-0.2014,-0.2025,-0.2126,-0.2126,-0.2132,-0.2145,-0.2156,-0.218,-0.2233,-0.2202,-0.2206,-0.222,-0.2283,-0.2297,-0.2302,-0.2338,-0.2332,-0.2334,-0.2336,-0.2337,-0.2465,-0.2467,0,0,0,0,0,0,-0.2007,-0.202,-0.2123,-0.2129,-0.208,-0.2147,-0.2159,-0.2179,-0.2233,-0.2243,-0.222,-0.2222,-0.2292,-0.2299,-0.2305,-0.2403,-0.2335,-0.2337,-0.2339,-0.2464,-0.2466,-0.2468,0,0,0,0,0,0,-0.2004,-0.2016,-0.2119,-0.2078,-0.2092,-0.215,-0.2171,-0.218,-0.2232,-0.2248,-0.2257,-0.2266,-0.2293,-0.2301,-0.2362,-0.2403,-0.2339,-0.2341,-0.2461,-0.2464,-0.2467,-0.2543,0,0,0,0,0,0,-0.2,-0.2014,-0.2043,-0.2078,-0.2095,-0.2172,-0.2171,-0.2182,-0.2238,-0.2244,-0.2289,-0.2295,-0.2294,-0.2358,-0.2364,-0.2406,-0.2343,-0.2459,-0.2463,-0.2466,-0.2538,-0.2548,-0.2556,0,0,0,0,0,-0.1994,-0.2026,-0.2044,-0.2057,-0.2127,-0.2174,-0.2185,-0.2224,-0.224,-0.2271,-0.2304,-0.2296,-0.2383,-0.2362,-0.2369,-0.2412,-0.2458,-0.2462,-0.2466,-0.2534,-0.2546,-0.2556,0,0,0,0,0,0,-0.1983,-0.2036,-0.2056,-0.2104,-0.2148,-0.2185,-0.2222,-0.2247,-0.2298,-0.2314,-0.2323,-0.2331,-0.2398,-0.2395,-0.2371,-0.2458,-0.2418,-0.2423,-0.2467,-0.2478,-0.2487,-0.2485,-0.2345,0,0,0,0,0,-0.1993,-0.2032,-0.2079,-0.2121,-0.2147,-0.2192,-0.2224,-0.2253,-0.2294,-0.2319,-0.2352,-0.2384,-0.2414,-0.244,-0.2464,-0.2516,-0.2498,-0.2547,-0.2556,-0.2564,-0.2567,-0.2568,-0.2577,-0.2481,-0.2481,-0.2481,0,0,-0.1999,-0.2035,-0.2058,-0.2122,-0.216,-0.2209,-0.2213,-0.2275,-0.2323,-0.2319,-0.2404,-0.2422,-0.2435,-0.2493,-0.2522,-0.2502,-0.2585,-0.2569,-0.2576,-0.2575,-0.2573,-0.2583,-0.2591,-0.2484,-0.2483,-0.2483,0,0,-0.2018,-0.2066,-0.2103,-0.2147,-0.2216,-0.2246,-0.2272,-0.2335,-0.2377,-0.245,-0.2457,-0.2501,-0.2559,-0.2572,-0.2583,-0.2657,-0.2632,-0.2672,-0.2721,-0.2723,-0.273,-0.2737,-0.2735,-0.274,-0.2678,-0.2678,-0.2678,0,-0.2026,-0.208,-0.2121,-0.2171,-0.2215,-0.2267,-0.2319,-0.2368,-0.2446,-0.2481,-0.2491,-0.2577,-0.2592,-0.2645,-0.2674,-0.2678,-0.2673,-0.2679,-0.2734,-0.2739,-0.2745,-0.2741,-0.2746,-0.2682,-0.2682,-0.2681,-0.2681,0,-0.2062,-0.2124,-0.2153,-0.2231,-0.2284,-0.2341,-0.2409,-0.2473,-0.2528,-0.2567,-0.265,-0.2673,-0.2716,-0.2734,-0.2732,-0.2784,-0.2767,-0.2743,-0.2703,-0.2759,-0.2751,-0.2755,-0.2688,-0.2687,-0.2685,-0.2684,0,0,-0.2023,-0.2153,-0.2166,-0.222,-0.2325,-0.2368,-0.246,-0.2544,-0.2605,-0.2678,-0.2746,-0.2801,-0.2814,-0.2827,-0.2831,-0.2842,-0.288,-0.2819,-0.2817,-0.2812,-0.2888,-0.2713,-0.27,-0.2868,-0.2869,-0.2869,-0.2871,0,-0.2041,-0.2137,-0.2202,-0.2305,-0.236,-0.2446,-0.2525,-0.261,-0.2682,-0.2762,-0.2797,-0.286,-0.2849,-0.2879,-0.2891,-0.2885,-0.2893,-0.2882,-0.2839,-0.2838,-0.267,-0.2699,-0.2872,-0.2874,-0.2875,-0.2875,-0.2876,0,-0.2042,-0.2114,-0.2214,-0.235,-0.2384,-0.2456,-0.2586,-0.2663,-0.2775,-0.2831,-0.2894,-0.2925,-0.2974,-0.2946,-0.296,-0.2957,-0.2933,-0.2917,-0.2916,-0.2725,-0.2669,-0.2804,-0.2882,-0.2881,-0.2881,-0.288,-0.288,0,-0.1973,-0.2117,-0.2199,-0.2247,-0.2406,-0.2475,-0.2559,-0.2683,-0.2749,-0.2872,-0.2923,-0.2985,-0.3018,-0.3008,-0.2986,-0.2982,-0.2979,-0.296,-0.2779,-0.2768,-0.2892,-0.2885,-0.2956,-0.2956,-0.2956,-0.2956,-0.2956,0,-0.1943,-0.2014,-0.2182,-0.2228,-0.2326,-0.2453,-0.256,-0.2651,-0.2779,-0.284,-0.2946,-0.2978,-0.3036,-0.3041,-0.3009,-0.2896,-0.2992,-0.2785,-0.2751,-0.2926,-0.2923,-0.2895,-0.2888,-0.2957,-0.2957,-0.2957,-0.2956,0,-0.1843,-0.1962,-0.2059,-0.2237,-0.2295,-0.236,-0.2537,-0.2605,-0.2745,-0.2826,-0.2865,-0.2984,-0.2986,-0.301,-0.2996,-0.2898,-0.2826,-0.2761,-0.2956,-0.2934,-0.2614,-0.2611,-0.2559,-0.2552,-0.2547,-0.2543,-0.2539,0,-0.1797,-0.1841,-0.2025,-0.2086,-0.2173,-0.2298,-0.2379,-0.2552,-0.2617,-0.279,-0.2803,-0.2882,-0.2929,-0.2771,-0.2816,-0.274,-0.2702,-0.2655,-0.2625,-0.2598,-0.2572,-0.2577,-0.2582,-0.253,-0.2529,-0.2528,-0.2526,0,-0.1694,-0.1774,-0.1856,-0.1963,-0.2065,-0.2157,-0.2286,-0.2311,-0.2497,-0.2659,-0.2666,-0.2662,-0.2665,-0.2645,-0.2606,-0.2548,-0.2681,-0.2599,-0.261,-0.2581,-0.2563,-0.2543,-0.2554,-0.2508,-0.251,-0.2512,-0.2513,0,-0.161,-0.1629,-0.1736,-0.1812,-0.1927,-0.1963,-0.2063,-0.2144,-0.2222,-0.2435,-0.2427,-0.2516,-0.2639,-0.2544,-0.2502,-0.2438,-0.2399,-0.2314,-0.2339,-0.236,-0.229,-0.2238,-0.2046,0,0,0,0,0,-0.151,-0.1515,-0.1578,-0.1648,-0.1751,-0.1804,-0.1973,-0.2084,-0.227,-0.2217,-0.2317,-0.2312,-0.2275,-0.2323,-0.221,-0.2388,-0.2391,-0.2246,-0.2305,-0.2405,-0.2427,-0.236,0,0,0,0,0,0,-0.1448,-0.1497,-0.1511,-0.1476,-0.1492,-0.1575,-0.1666,-0.1809,-0.1802,-0.2008,-0.1999,-0.2159,-0.2152,-0.229,-0.2153,-0.2165,-0.2153,-0.2319,-0.2313,-0.2393,-0.2413,-0.243,-0.2369,0,0,0,0,0]},{"header":{"parameterUnit":"m.s-1","parameterCategory":2,"la1":30.2991,"la2":30.254,"lo1":-89.0895,"lo2":-89.0444,"dx":0.0017,"dy":0.0017,"nx":28,"ny":28,"refTime":"2023-01-20T09:00:00:Z","depth":"4","parameterNumber":3,"parameterNumberName":"V-component_of_CURRENTS"},"data":[0,0,0,0,0,0,0,0,0,0,0,0,0,0,0,0,0,0,0,0,0,0,0,0,0,0,0,0,0,0,0,0,0,0,0,0,0,0,0,0,0,0,0,0,0,0,0,0,0,0,0,0,0,0,0,0,0,0,-0.0179,-0.0178,0,-0.0095,-0.0094,-0.0093,-0.0031,-0.0031,-0.003,-0.003,0.0099,0.0102,0.0105,0,0,0,0,0,0,0,0,0,0,0,0,0,-0.0221,-0.0221,-0.0179,-0.0178,-0.0177,-0.0095,-0.0094,-0.0092,-0.0031,-0.0031,-0.003,-0.003,0.0098,0.0101,0.0105,0,0,0,0,0,0,0,0,0,0,0,0,0,-0.0175,-0.0221,-0.0179,-0.0138,-0.0134,-0.0095,-0.0094,-0.0092,-0.0031,-0.0031,-0.003,-0.003,0.0096,0.0101,0.0106,0.0125,0,0,0.012,0.0122,0,0,0,0,0,0,0,0,-0.0177,-0.0173,-0.0145,-0.0141,-0.0136,-0.0075,-0.0062,-0.0018,-0.0031,-0.0068,-0.003,-0.003,0.0043,0.0052,0.0069,0.0131,0.0136,0.012,0.0123,0.0125,0.0126,0,0,0,0,0,0,0,-0.0181,-0.0176,-0.0143,-0.0144,-0.0139,-0.0103,-0.0096,-0.0053,-0.0013,-0.0064,-0.006,-0.0055,0.0046,0.0065,0.0073,0.0138,0.012,0.0124,0.0127,0.0129,0.0242,0.0242,0,0,0,0,0,0,-0.02,-0.0179,-0.0146,-0.0141,-0.0159,-0.0103,-0.0095,-0.0093,-0.0015,-0.0003,-0.0056,-0.0053,0.0056,0.0067,0.0078,0.0112,0.0125,0.013,0.0132,0.0242,0.0242,0.0242,0,0,0,0,0,0,-0.0201,-0.0198,-0.0149,-0.016,-0.0151,-0.0103,-0.0101,-0.0092,-0.0074,-0.0009,0.0004,-0.0048,0.0057,0.0071,0.0116,0.0117,0.0132,0.0136,0.0242,0.0242,0.0242,0.0176,0,0,0,0,0,0,-0.0203,-0.0199,-0.0207,-0.0161,-0.0151,-0.0134,-0.0102,-0.0091,-0.0073,-0.0068,0.0001,0.0014,0.0059,0.0109,0.0121,0.0124,0.014,0.0241,0.0242,0.0242,0.0178,0.0174,0.0171,0,0,0,0,0,-0.0205,-0.0219,-0.0208,-0.0204,-0.0164,-0.0135,-0.0127,-0.0088,-0.0073,-0.007,-0.002,0.0012,0.0119,0.0112,0.0127,0.0131,0.0241,0.0242,0.0242,0.018,0.0175,0.0171,0,0,0,0,0,0,-0.0241,-0.0213,-0.02,-0.0205,-0.0177,-0.0126,-0.0123,-0.0096,-0.0054,-0.005,0.0015,0.0031,0.0069,0.0109,0.01,0.0165,0.0185,0.0189,0.0134,0.013,0.0126,0.011,0.0143,0,0,0,0,0,-0.0255,-0.026,-0.0222,-0.0227,-0.0218,-0.0172,-0.0158,-0.0132,-0.0089,-0.007,-0.002,0.0034,0.0082,0.0111,0.0156,0.0193,0.0233,0.0206,0.0202,0.0198,0.0195,0.0259,0.0261,0.0244,0.0244,0.0243,0,0,-0.0272,-0.0258,-0.026,-0.0236,-0.0212,-0.0203,-0.0162,-0.0146,-0.0132,-0.0063,-0.003,0.002,0.0087,0.0128,0.0149,0.0162,0.0224,0.0199,0.0195,0.0194,0.026,0.0262,0.0263,0.0244,0.0244,0.0244,0,0,-0.0306,-0.0295,-0.0308,-0.029,-0.0263,-0.0232,-0.0233,-0.0185,-0.0158,-0.0123,-0.0068,-0.0016,0.0051,0.0107,0.0142,0.0146,0.0197,0.0158,0.0134,0.0195,0.0197,0.0199,0.0244,0.0251,0.0162,0.0162,0.0162,0,-0.0328,-0.0341,-0.0307,-0.0312,-0.0305,-0.0251,-0.026,-0.0223,-0.0165,-0.0142,-0.0124,-0.0011,0.0043,0.0107,0.011,0.0138,0.0174,0.0142,0.019,0.0193,0.0196,0.0242,0.025,0.0159,0.0159,0.0159,0.0159,0,-0.0367,-0.0378,-0.0385,-0.0375,-0.0358,-0.0359,-0.0308,-0.0285,-0.0248,-0.0204,-0.0142,-0.0061,0.0007,0.0035,0.0075,0.0128,0.0146,0.0171,0.0196,0.0194,0.0242,0.0252,0.0154,0.0155,0.0156,0.0157,0,0,-0.0415,-0.0416,-0.0419,-0.0433,-0.0396,-0.039,-0.0364,-0.0325,-0.031,-0.0239,-0.0207,-0.0111,-0.0063,-0.002,0.0045,0.0106,0.016,0.0142,0.0147,0.0177,0.0284,0.0261,0.027,0.0192,0.0193,0.0195,0.0305,0,-0.0459,-0.0498,-0.0475,-0.0504,-0.0519,-0.0466,-0.0448,-0.04,-0.0347,-0.03,-0.0199,-0.0146,-0.0083,-0.0054,0.0019,0.0127,0.0184,0.0126,0.029,0.0295,0.0268,0.028,0.02,0.0313,0.0315,0.0317,0.0318,0,-0.0501,-0.0525,-0.0569,-0.0579,-0.058,-0.0584,-0.0552,-0.0529,-0.0438,-0.0394,-0.031,-0.0229,-0.012,-0.0077,0.011,0.0069,0.0164,0.0248,0.0255,0.0263,0.029,0.0321,0.0336,0.0335,0.0334,0.0332,0.0331,0,-0.0557,-0.0588,-0.0633,-0.0637,-0.0633,-0.0642,-0.0633,-0.0563,-0.0547,-0.0454,-0.0427,-0.0281,-0.0209,-0.0065,0.0117,0.0112,0.0316,0.0334,0.0403,0.0403,0.0419,0.0416,0.0452,0.0452,0.0451,0.0451,0.0451,0,-0.0608,-0.0646,-0.0673,-0.0701,-0.0752,-0.0716,-0.0742,-0.0702,-0.0645,-0.0622,-0.0487,-0.0427,-0.0203,-0.0053,0.01,0.0284,0.0309,0.0399,0.0433,0.0387,0.038,0.0425,0.0421,0.0455,0.0454,0.0453,0.0453,0,-0.0653,-0.0672,-0.0735,-0.0768,-0.0784,-0.082,-0.0836,-0.0844,-0.0776,-0.074,-0.0714,-0.0527,-0.0327,-0.0106,0.0145,0.0255,0.0435,0.0491,0.0419,0.0447,0.0481,0.0472,0.057,0.057,0.057,0.057,0.0571,0,-0.0676,-0.0714,-0.0797,-0.0852,-0.0877,-0.0927,-0.0957,-0.0917,-0.0911,-0.0795,-0.0774,-0.0581,-0.0436,-0.0099,0.0132,0.0419,0.0456,0.0535,0.0513,0.0471,0.0495,0.0485,0.0476,0.0571,0.0571,0.0571,0.0571,0,-0.0721,-0.0757,-0.0814,-0.0927,-0.0994,-0.1055,-0.1087,-0.1093,-0.1022,-0.0967,-0.0817,-0.0622,-0.0392,-0.0112,0.0117,0.0322,0.0478,0.0538,0.0538,0.0518,0.0474,0.0494,0.0485,0.0571,0.0571,0.0571,0.0571,0,-0.0753,-0.0809,-0.0893,-0.0986,-0.108,-0.1145,-0.1161,-0.1133,-0.1108,-0.0964,-0.0914,-0.0647,-0.0475,-0.0162,0.005,0.0251,0.0293,0.0336,0.0348,0.035,0.0254,0.0164,0.0195,0,0,0,0,0,-0.0773,-0.0842,-0.0944,-0.1044,-0.1137,-0.1187,-0.1223,-0.1216,-0.1147,-0.1059,-0.0982,-0.0764,-0.0418,-0.0252,-0.0058,0.0038,0.0314,0.0268,0.0365,0.0574,0.0574,0.0496,0,0,0,0,0,0,-0.0794,-0.0891,-0.0945,-0.1064,-0.1141,-0.123,-0.1261,-0.1226,-0.1158,-0.1062,-0.0874,-0.0741,-0.0402,-0.053,-0.0061,0.0005,0.0085,0.0447,0.045,0.0574,0.0574,0.0573,0.0494,0,0,0,0,0]}]]